Regional Weather Roundup
Issued by NWS

Home | Current Version | Previous Version | Text Only | Print | Product List | Glossary Off
Versions: 1 2 3 4 5 6 7 8 9 10 11 12 13 14 15 16 17 18 19 20 21 22 23 24 25 26 27 28 29 30 31 32 33 34 35 36 37 38 39 40 41 42 43 44 45 46 47 48 49 50

000
ASUS43 KIND 231709
RWRIN

WEATHER ROUNDUP FOR INDIANA
NATIONAL WEATHER SERVICE INDIANAPOLIS IN
100 PM EDT THU OCT 23 2014

NOTE: "FAIR" INDICATES FEW OR NO CLOUDS BELOW 12,000 FEET WITH NO
SIGNIFICANT WEATHER AND/OR OBSTRUCTIONS TO VISIBILITY.

* - STATION DOES NOT REPORT WEATHER SUCH AS PRECIPITATION OR FOG.

+ - STATION NOT QUALITY CONTROLLED BY THE NATIONAL WEATHER SERVICE.
    USE DATA WITH CAUTION...ESPECIALLY DEWPOINT AND RELATIVE
    HUMIDITY OBSERVATIONS.

INZ001>003-010>013-019-020-231800-
NORTHWEST INDIANA

CITY           SKY/WX    TMP DP  RH WIND       PRES   REMARKS
GARY /AIRPORT/ PTSUNNY   55  43  62 SW5G16    30.21F
KNOX *+        MOSUNNY   54  41  61 S5        30.22S
LA PORTE +     MOSUNNY   54  47  78 SW5       30.23S
MICHIGAN CITY+ SUNNY     55  41  58 S9        30.22F
MONTICELLO +   MOSUNNY   54  43  66 S5        30.22F
RENSSELAER +   MOSUNNY   55  45  67 SW9       30.22S
VALPARAISO     MOSUNNY   55  41  59 SW7       30.22F

$$

LMZ046-743>745-231800-
SOUTHERN LAKE MICHIGAN

STATION/POSITION TIME  TEMP WIND        PRES
                       AIR  DIR/SP/G
                 (UTC) (F)  (DEG/KT/KT) (MB)
MICHIGAN CITY    1700   52  170/  9/ 11   N/A

$$

INZ004-005-014>016-021>024-231800-
NORTH CENTRAL INDIANA

CITY           SKY/WX    TMP DP  RH WIND       PRES   REMARKS
ELKHART        MOSUNNY   54  41  62 SW5       30.23F
GOSHEN         MOSUNNY   54  43  66 W8        30.22F
LOGANSPORT +   PTSUNNY   54  41  62 CALM      30.23F
PERU/GRISSOM   SUNNY     54  46  74 SW6       30.22F
ROCHESTER +    MOSUNNY   55  43  62 SW8       30.23F
SOUTH BEND     SUNNY     55  41  59 SW8       30.23F
WARSAW +       MOSUNNY   54  43  66 SW6       30.23F

$$

INZ006>009-017-018-025>027-231800-
NORTHEAST INDIANA

CITY           SKY/WX    TMP DP  RH WIND       PRES   REMARKS
ANGOLA *+      SUNNY     54  41  62 CALM      30.21F
AUBURN +       SUNNY     54  41  62 W3        30.23F
FORT WAYNE     MOSUNNY   53  42  66 CALM      30.24F
HUNTINGTON +   SUNNY     50  45  83 CALM      30.22F

$$

INZ028-029-035-036-043>045-051>053-231800-
WEST CENTRAL INDIANA

CITY           SKY/WX    TMP DP  RH WIND       PRES   REMARKS
GREENCASTLE +  SUNNY     54  43  66 CALM      30.24S
LAFAYETTE      MOSUNNY   55  41  59 SW8       30.23S
TERRE HAUTE    MOSUNNY   54  43  66 SW7       30.23F

$$

INZ030>032-037>040-046>048-054>057-064-065-231800-
CENTRAL INDIANA

CITY           SKY/WX    TMP DP  RH WIND       PRES   REMARKS
CP ATTERBURY + SUNNY     55  41  58 N3        30.23F
COLUMBUS       SUNNY     54  43  66 S7        30.25
FRANKFORT +    SUNNY     56  43  63 SE5       30.24F
INDIANAPOLIS   MOSUNNY   54  41  61 CALM      30.22F
-EAGLE CREEK   SUNNY     54  42  64 CALM      30.22F
KOKOMO *+      SUNNY     55  41  58 CALM      30.22F
MARION +       MOSUNNY   53  40  63 SW3       30.23F
MT COMFORT *+  MOSUNNY   55  34  44 CALM      30.24F
SHELBYVILLE    SUNNY     56  42  59 SW6       30.23F
ZIONSVILLE +   SUNNY     55  40  57 S3        30.23F

$$

INZ033-034-041-042-049-050-058-059-231800-
EAST CENTRAL INDIANA

CITY           SKY/WX    TMP DP  RH WIND       PRES   REMARKS
MUNCIE         SUNNY     54  40  59 SW5       30.23F

$$

INZ060-061-067>069-081>083-085>088-231800-
SOUTHWEST INDIANA

CITY           SKY/WX    TMP DP  RH WIND       PRES   REMARKS
EVANSVILLE     SUNNY     57  42  57 VRB3      30.24F
HUNTINGBURG *+ SUNNY     55  43  62 S5        30.24F
WASHINGTON +   SUNNY     56  43  60 S3        30.24F

$$

INZ062-063-066-070>080-084-089>092-231800-
SOUTH CENTRAL AND SOUTHEAST INDIANA

CITY           SKY/WX    TMP DP  RH WIND       PRES   REMARKS
BLOOMINGTON    SUNNY     55  41  59 CALM      30.24S
NORTH VERNON + SUNNY     55  39  54 CALM      30.23  HAZE

$$




USA.gov is the U.S. government's official web portal to all federal, state and local government web resources and services.